Regional Weather Roundup
Issued by NWS Goodland, KS

Home | Current Version | Previous Version | Text Only | Print | Product List | Glossary Off
Versions: 1 2 3 4 5 6 7 8 9 10 11 12 13 14 15 16 17 18 19 20 21 22 23 24 25 26 27 28 29 30 31 32 33 34 35 36 37 38 39 40 41 42 43 44 45 46 47 48 49 50

000
ASUS43 KGLD 192208
RWRGLD

GOODLAND FORECAST AREA HOURLY WEATHER ROUNDUP
NATIONAL WEATHER SERVICE GOODLAND KS
300 PM MST FRI JAN 19 2018

...OFFICIAL OBSERVATIONS...

CITY           SKY/WX    TMP DP  RH WIND       PRES   REMARKS
GOODLAND KS    CLOUDY    69  21  16 N6        29.66R
HILL CITY KS   CLOUDY    69  17  13 SW9       29.64R
IMPERIAL NEB   CLOUDY    61  28  28 N8        29.66R
MCCOOK NEB     PTSUNNY   58  27  30 CALM      29.64S
AKRON CO       CLOUDY    51  23  33 W8        29.70S
BURLINGTON CO  CLOUDY    69  19  15 NE8       29.69S
LIMON CO       CLOUDY    61  16  17 CALM      29.73S
$$

...UNOFFICIAL OBSERVATIONS...

CITY           SKY/WX    TMP DP  RH WIND       PRES   REMARKS
COLBY KS       CLOUDY    68  28  22 NW9       29.66R
NORTON KS      SUNNY     59  18  20 N6        29.63
SHARON SPRINGS   N/A     70  19  14 CALM        N/A
KIT CARSON CO    N/A     75  24  15 CALM        N/A
YUMA CO        FAIR      61  19  20 W5        29.68S
$$




USA.gov is the U.S. government's official web portal to all federal, state and local government web resources and services.